[[{"header":{"parameterUnit":"m.s-1","parameterCategory":1,"la1":30.2991,"la2":30.254,"lo1":-89.0895,"lo2":-89.0444,"dy":0.0017,"dx":0.0017,"nx":28,"ny":28,"refTime":"2023-11-16T03:00:00:Z","depth":0,"parameterNumber":2,"parameterNumberName":"U-component_of_WINDS"},"data":[0,0,0,0,0,0,0,0,0,0,0,0,0,0,0,0,0,0,0,0,0,0,0,0,0,0,0,0,0,0,0,0,0,0,0,0,0,0,0,0,0,0,0,0,0,0,0,0,0,0,0,0,0,0,0,0,0,0,-1.8899,-1.89,0,-1.9004,-1.9006,-1.9007,-1.897,-1.8968,-1.8966,-1.8963,-1.9075,-1.908,-1.9085,0,0,0,0,0,0,0,0,0,0,0,0,0,-1.8669,-1.8674,-1.8899,-1.89,-1.8902,-1.9004,-1.9006,-1.9007,-1.8971,-1.8968,-1.8965,-1.8962,-1.9073,-1.9079,-1.9085,0,0,0,0,0,0,0,0,0,0,0,0,0,-1.8771,-1.8675,-1.8899,-1.8896,-1.8896,-1.9004,-1.9006,-1.9007,-1.8971,-1.8968,-1.8964,-1.8961,-1.9071,-1.9078,-1.9086,-1.9204,0,0,-1.911,-1.9113,0,0,0,0,0,0,0,0,-1.8766,-1.878,-1.8895,-1.8896,-1.8897,-1.897,-1.8965,-1.9073,-1.8972,-1.8943,-1.8963,-1.8959,-1.9043,-1.9053,-1.908,-1.9209,-1.9214,-1.911,-1.9115,-1.9118,-1.9121,0,0,0,0,0,0,0,-1.8759,-1.8775,-1.8941,-1.8897,-1.8898,-1.889,-1.8901,-1.8986,-1.9012,-1.8945,-1.8943,-1.8956,-1.9043,-1.9073,-1.9083,-1.9215,-1.911,-1.9117,-1.9122,-1.9125,-1.9447,-1.9451,0,0,0,0,0,0,-1.8751,-1.877,-1.8937,-1.8944,-1.8821,-1.8897,-1.8909,-1.8951,-1.901,-1.9016,-1.8958,-1.8953,-1.9062,-1.9074,-1.9087,-1.923,-1.9118,-1.9126,-1.913,-1.9443,-1.9448,-1.9452,0,0,0,0,0,0,-1.8746,-1.8766,-1.8933,-1.8856,-1.8877,-1.8905,-1.8952,-1.8954,-1.8984,-1.902,-1.9025,-1.8984,-1.9059,-1.9076,-1.9175,-1.9233,-1.9129,-1.9136,-1.9439,-1.9445,-1.945,-1.9516,0,0,0,0,0,0,-1.8739,-1.8764,-1.8809,-1.8857,-1.8881,-1.9019,-1.8955,-1.8959,-1.8997,-1.8992,-1.9046,-1.9052,-1.9058,-1.9164,-1.9183,-1.9242,-1.9142,-1.9434,-1.9441,-1.9448,-1.9509,-1.9524,-1.9536,0,0,0,0,0,-1.8731,-1.8824,-1.8811,-1.8832,-1.8937,-1.9023,-1.9036,-1.9041,-1.9002,-1.9048,-1.9071,-1.905,-1.9223,-1.9174,-1.9195,-1.9258,-1.943,-1.9439,-1.9448,-1.9503,-1.9521,-1.9536,0,0,0,0,0,0,-1.8782,-1.883,-1.8817,-1.8927,-1.8971,-1.9016,-1.9074,-1.9059,-1.9116,-1.9108,-1.9112,-1.9125,-1.9227,-1.9252,-1.9197,-1.9375,-1.9321,-1.9335,-1.9356,-1.9373,-1.9386,-1.9379,-1.9148,0,0,0,0,0,-1.8806,-1.8871,-1.8909,-1.9003,-1.9026,-1.9046,-1.9083,-1.9083,-1.9129,-1.9147,-1.9178,-1.9224,-1.9289,-1.9332,-1.9394,-1.9511,-1.9524,-1.9565,-1.9578,-1.9589,-1.9602,-1.9668,-1.9687,-1.9482,-1.9481,-1.9481,0,0,-1.8857,-1.8891,-1.8932,-1.9014,-1.9048,-1.9116,-1.9062,-1.9136,-1.9187,-1.9159,-1.9255,-1.9279,-1.9331,-1.944,-1.949,-1.9464,-1.9661,-1.9601,-1.9609,-1.9616,-1.9679,-1.9698,-1.9716,-1.9488,-1.9486,-1.9485,0,0,-1.8985,-1.9016,-1.9098,-1.9133,-1.9184,-1.9197,-1.9217,-1.9264,-1.9279,-1.9374,-1.9355,-1.9416,-1.9527,-1.9566,-1.96,-1.9741,-1.9725,-1.9761,-1.9833,-1.9897,-1.9913,-1.9928,-1.998,-1.9999,-1.9773,-1.9773,-1.9773,0,-1.9042,-1.9142,-1.9143,-1.9219,-1.9256,-1.9232,-1.9317,-1.9351,-1.942,-1.9447,-1.9416,-1.9556,-1.9589,-1.9708,-1.9743,-1.977,-1.9794,-1.9756,-1.9911,-1.9925,-1.9939,-1.9989,-2.0008,-1.9777,-1.9777,-1.9776,-1.9776,0,-1.9211,-1.9281,-1.9341,-1.9408,-1.9452,-1.9532,-1.9545,-1.959,-1.9585,-1.9602,-1.97,-1.9739,-1.9809,-1.9836,-1.9833,-1.9955,-1.9938,-1.9909,-1.9855,-1.9962,-2.001,-2.0029,-1.9783,-1.9782,-1.978,-1.9779,0,0,-1.9376,-1.9441,-1.9463,-1.9494,-1.9548,-1.9603,-1.9682,-1.9749,-1.9788,-1.9836,-1.9904,-1.9998,-1.9972,-2.001,-2.0011,-2.0067,-2.0179,-2.0031,-2.0032,-2.0059,-2.0318,-2.0341,-2.0364,-2.0167,-2.017,-2.0173,-2.0315,0,-1.9509,-1.9647,-1.9649,-1.9777,-1.9842,-1.982,-1.9889,-1.9931,-1.9948,-2.0007,-2.0026,-2.0094,-2.0052,-2.0076,-2.013,-2.0153,-2.0231,-2.0143,-2.0232,-2.0235,-2.0222,-2.0388,-2.0413,-2.0545,-2.0333,-2.0336,-2.0338,0,-1.9684,-1.9737,-1.9871,-1.9916,-1.9944,-2.0006,-2.0068,-2.0124,-2.0171,-2.0179,-2.0222,-2.0214,-2.0296,-2.0237,-2.0351,-2.0291,-2.0327,-2.0344,-2.035,-2.036,-2.0295,-2.0406,-2.0586,-2.0607,-2.0367,-2.0365,-2.0363,0,-1.9794,-1.9899,-1.9992,-2.0019,-2.0074,-2.0118,-2.0143,-2.0186,-2.0227,-2.0281,-2.0307,-2.037,-2.0406,-2.0455,-2.0465,-2.0421,-2.058,-2.0522,-2.0592,-2.0592,-2.0628,-2.0626,-2.082,-2.0647,-2.0647,-2.0647,-2.0646,0,-1.9945,-2.0028,-2.0043,-2.0101,-2.0193,-2.0195,-2.0287,-2.0309,-2.0348,-2.041,-2.0394,-2.0454,-2.0462,-2.0524,-2.0532,-2.0626,-2.0641,-2.0652,-2.0654,-2.0655,-2.0654,-2.0681,-2.0673,-2.0652,-2.0651,-2.065,-2.0649,0,-2.0084,-2.0097,-2.0198,-2.0241,-2.0254,-2.0321,-2.0358,-2.0414,-2.0429,-2.0509,-2.0528,-2.0551,-2.0623,-2.0637,-2.0722,-2.0728,-2.0841,-2.0832,-2.0825,-2.0825,-2.0895,-2.0889,-2.1115,-2.1145,-2.095,-2.0952,-2.0953,0,-2.0181,-2.0244,-2.0294,-2.0334,-2.0361,-2.0426,-2.0467,-2.0471,-2.0514,-2.0573,-2.0622,-2.0692,-2.0749,-2.0865,-2.0891,-2.0956,-2.095,-2.1025,-2.096,-2.096,-2.0955,-2.0952,-2.0959,-2.1038,-2.104,-2.1042,-2.1043,0,-2.0352,-2.0355,-2.0413,-2.0475,-2.0524,-2.0573,-2.0619,-2.0653,-2.0663,-2.0713,-2.0786,-2.0829,-2.0916,-2.0987,-2.1052,-2.1079,-2.1064,-2.1063,-2.1083,-2.1087,-2.1081,-2.1087,-2.0862,-2.1059,-2.1057,-2.1056,-2.1055,-2.1055,-2.0474,-2.053,-2.0574,-2.064,-2.0675,-2.0719,-2.0774,-2.0795,-2.0855,-2.0926,-2.0924,-2.1004,-2.105,-2.1136,-2.1167,-2.1231,-2.1208,-2.1236,-2.1244,-2.1251,-2.1259,-2.1068,-2.1242,-2.1242,-2.1242,-2.1241,-2.1241,0,-2.0647,-2.0673,-2.0734,-2.0799,-2.0851,-2.083,-2.088,-2.0926,-2.0997,-2.104,-2.1096,-2.118,-2.1248,-2.1279,-2.1346,-2.1391,-2.1387,-2.1409,-2.1408,-2.1414,-2.1275,-2.1252,-2.1412,-2.1412,-2.1412,-2.1412,-2.1412,-2.1412,-2.0743,-2.0836,-2.0845,-2.0956,-2.0982,-2.106,-2.1091,-2.1131,-2.1166,-2.126,-2.1317,-2.1335,-2.1374,-2.1444,-2.1506,-2.1513,-2.154,-2.1567,-2.1571,-2.1441,-2.1424,-2.1408,-2.1386,-2.1572,-2.1572,-2.1706,-2.1707,-2.1708]},{"header":{"parameterUnit":"m.s-1","parameterCategory":1,"la1":30.2991,"la2":30.254,"lo1":-89.0895,"lo2":-89.0444,"dy":0.0017,"dx":0.0017,"nx":28,"ny":28,"refTime":"2023-11-16T03:00:00:Z","depth":0,"parameterNumber":3,"parameterNumberName":"V-component_of_WINDS"},"data":[0,0,0,0,0,0,0,0,0,0,0,0,0,0,0,0,0,0,0,0,0,0,0,0,0,0,0,0,0,0,0,0,0,0,0,0,0,0,0,0,0,0,0,0,0,0,0,0,0,0,0,0,0,0,0,0,0,0,-4.0234,-4.0234,0,-4.0233,-4.0233,-4.0233,-4.0172,-4.0171,-4.0169,-4.0168,-4.0166,-4.0168,-4.0169,0,0,0,0,0,0,0,0,0,0,0,0,0,-4.0183,-4.0185,-4.0234,-4.0234,-4.0234,-4.0233,-4.0233,-4.0233,-4.0173,-4.0171,-4.0169,-4.0167,-4.0166,-4.0168,-4.0169,0,0,0,0,0,0,0,0,0,0,0,0,0,-4.0196,-4.0185,-4.0234,-4.0204,-4.0201,-4.0233,-4.0233,-4.0233,-4.0173,-4.0171,-4.0168,-4.0166,-4.0165,-4.0167,-4.0169,-4.023,0,0,-4.0176,-4.0177,0,0,0,0,0,0,0,0,-4.0196,-4.0198,-4.0208,-4.0206,-4.0203,-4.02,-4.0215,-4.0232,-4.0174,-4.0184,-4.0168,-4.0165,-4.018,-4.018,-4.0185,-4.023,-4.023,-4.0176,-4.0178,-4.0179,-4.0179,0,0,0,0,0,0,0,-4.0195,-4.0198,-4.0234,-4.0209,-4.0205,-4.019,-4.0189,-4.0218,-4.0195,-4.0183,-4.0178,-4.0179,-4.0178,-4.0183,-4.0185,-4.023,-4.0176,-4.0178,-4.0179,-4.018,-4.0324,-4.0327,0,0,0,0,0,0,-4.0198,-4.0198,-4.0234,-4.0234,-4.0193,-4.0193,-4.0192,-4.0204,-4.0194,-4.0191,-4.0181,-4.0176,-4.0181,-4.0182,-4.0185,-4.0255,-4.0179,-4.0181,-4.0182,-4.0322,-4.0325,-4.0328,0,0,0,0,0,0,-4.0197,-4.0202,-4.0234,-4.0214,-4.0217,-4.0196,-4.021,-4.0205,-4.0211,-4.0193,-4.0189,-4.0191,-4.0179,-4.0182,-4.0219,-4.0254,-4.0182,-4.0183,-4.0319,-4.0323,-4.0326,-4.0396,0,0,0,0,0,0,-4.0196,-4.0202,-4.0225,-4.0215,-4.0219,-4.0269,-4.0212,-4.0207,-4.0215,-4.0208,-4.0202,-4.0198,-4.0177,-4.0216,-4.0221,-4.0255,-4.0185,-4.0316,-4.0321,-4.0325,-4.039,-4.0402,-4.0411,0,0,0,0,0,-4.0194,-4.0245,-4.0227,-4.0231,-4.0247,-4.0271,-4.0273,-4.0248,-4.0218,-4.024,-4.0229,-4.0198,-4.0249,-4.0221,-4.0226,-4.0261,-4.0313,-4.0319,-4.0325,-4.0386,-4.0399,-4.0411,0,0,0,0,0,0,-4.0259,-4.0243,-4.0223,-4.0272,-4.0273,-4.0261,-4.0289,-4.0263,-4.0274,-4.0267,-4.0236,-4.0235,-4.0277,-4.0273,-4.0242,-4.0319,-4.0276,-4.0283,-4.0321,-4.0333,-4.0344,-4.0344,-4.0187,0,0,0,0,0,-4.0279,-4.03,-4.0285,-4.033,-4.0331,-4.031,-4.032,-4.03,-4.0301,-4.0301,-4.0293,-4.0294,-4.031,-4.0322,-4.0336,-4.039,-4.0387,-4.0416,-4.0427,-4.0435,-4.0442,-4.0469,-4.0482,-4.0346,-4.0346,-4.0346,0,0,-4.0321,-4.0315,-4.033,-4.0342,-4.0341,-4.0364,-4.0311,-4.0337,-4.0353,-4.0305,-4.034,-4.0334,-4.0333,-4.0379,-4.0399,-4.0377,-4.0479,-4.0443,-4.045,-4.0451,-4.0476,-4.0489,-4.0501,-4.035,-4.0349,-4.0349,0,0,-4.0408,-4.0406,-4.0442,-4.0442,-4.0441,-4.0426,-4.0435,-4.0427,-4.0421,-4.0455,-4.042,-4.0438,-4.0467,-4.0468,-4.0472,-4.0559,-4.0531,-4.0564,-4.0619,-4.0646,-4.0656,-4.0666,-4.0696,-4.0708,-4.0571,-4.0571,-4.0571,0,-4.0459,-4.0491,-4.0464,-4.0492,-4.0498,-4.0456,-4.0492,-4.0494,-4.0498,-4.0503,-4.0478,-4.0513,-4.0509,-4.0555,-4.0576,-4.0581,-4.059,-4.0565,-4.0657,-4.0666,-4.0674,-4.0703,-4.0715,-4.0575,-4.0575,-4.0574,-4.0574,0,-4.0555,-4.0578,-4.0607,-4.0612,-4.0621,-4.0654,-4.0631,-4.0644,-4.0624,-4.0612,-4.0647,-4.0642,-4.0654,-4.0663,-4.0644,-4.0705,-4.0692,-4.0663,-4.0618,-4.0692,-4.0718,-4.0729,-4.0581,-4.0579,-4.0578,-4.0577,0,0,-4.0683,-4.0671,-4.0682,-4.0684,-4.0679,-4.0696,-4.0726,-4.0738,-4.0749,-4.0753,-4.0777,-4.0803,-4.0775,-4.078,-4.0761,-4.0785,-4.0853,-4.0752,-4.0752,-4.0771,-4.092,-4.0942,-4.0955,-4.0835,-4.0837,-4.0838,-4.092,0,-4.0766,-4.0817,-4.0793,-4.0846,-4.0866,-4.0826,-4.0852,-4.0852,-4.0842,-4.0857,-4.0846,-4.0864,-4.0827,-4.083,-4.0852,-4.084,-4.0883,-4.0834,-4.0856,-4.0858,-4.0857,-4.0969,-4.0992,-4.107,-4.093,-4.0932,-4.0933,0,-4.087,-4.0878,-4.0934,-4.0925,-4.0933,-4.0957,-4.0965,-4.098,-4.0979,-4.097,-4.0976,-4.095,-4.0979,-4.0935,-4.0974,-4.0941,-4.0949,-4.0945,-4.0947,-4.0948,-4.09,-4.0972,-4.1094,-4.1105,-4.0949,-4.0948,-4.0947,0,-4.0957,-4.0982,-4.1018,-4.102,-4.1011,-4.1029,-4.1026,-4.1023,-4.1031,-4.1038,-4.1043,-4.1054,-4.106,-4.1069,-4.1047,-4.1017,-4.1088,-4.1043,-4.1081,-4.1082,-4.1097,-4.1097,-4.1221,-4.1104,-4.1103,-4.1103,-4.1103,0,-4.1053,-4.1088,-4.1057,-4.1079,-4.1117,-4.1089,-4.1128,-4.112,-4.1118,-4.1137,-4.1104,-4.1123,-4.1093,-4.1109,-4.1093,-4.1127,-4.113,-4.1123,-4.1118,-4.1126,-4.1127,-4.113,-4.1124,-4.1106,-4.1106,-4.1105,-4.1104,0,-4.1156,-4.1137,-4.1173,-4.1162,-4.1159,-4.1188,-4.1178,-4.1198,-4.1185,-4.121,-4.1215,-4.1195,-4.1212,-4.1191,-4.1207,-4.1196,-4.1242,-4.1229,-4.1242,-4.1239,-4.1278,-4.1274,-4.1409,-4.1425,-4.1297,-4.1298,-4.1299,0,-4.1219,-4.1245,-4.1235,-4.1246,-4.1245,-4.1263,-4.1271,-4.1244,-4.1254,-4.1255,-4.1275,-4.1289,-4.1299,-4.1329,-4.1316,-4.1328,-4.1315,-4.1361,-4.1316,-4.1323,-4.1315,-4.1313,-4.1315,-4.137,-4.1371,-4.1373,-4.1374,0,-4.1331,-4.1319,-4.1332,-4.1342,-4.1352,-4.1359,-4.1363,-4.1373,-4.1345,-4.1358,-4.1375,-4.1383,-4.1399,-4.1414,-4.1422,-4.1419,-4.1392,-4.1388,-4.1397,-4.1405,-4.1411,-4.1408,-4.1267,-4.1385,-4.1384,-4.1383,-4.1382,-4.1382,-4.1415,-4.1436,-4.1432,-4.1448,-4.1448,-4.1452,-4.147,-4.1459,-4.1473,-4.1483,-4.1467,-4.1488,-4.1486,-4.1494,-4.1494,-4.151,-4.1491,-4.1504,-4.1508,-4.1511,-4.1517,-4.1409,-4.1512,-4.1512,-4.1511,-4.1511,-4.1511,0,-4.1524,-4.152,-4.1535,-4.1541,-4.1553,-4.1526,-4.1529,-4.154,-4.156,-4.156,-4.1571,-4.159,-4.1604,-4.1592,-4.1604,-4.1619,-4.1607,-4.1623,-4.1621,-4.1621,-4.1534,-4.1525,-4.1633,-4.1633,-4.1633,-4.1633,-4.1633,-4.1633,-4.1583,-4.1617,-4.1605,-4.1639,-4.1634,-4.1655,-4.1658,-4.1662,-4.1662,-4.1685,-4.1697,-4.1688,-4.1684,-4.1694,-4.1706,-4.1702,-4.1708,-4.1728,-4.172,-4.1639,-4.1627,-4.1616,-4.1607,-4.173,-4.173,-4.1805,-4.1806,-4.1806]}]]